UAL2148 KDCA-KORD

Flight info

Callsign UAL2148
Flight time N/A
Altitude 38000
Route WYNGS5 RAMAY Q72 HACKS J149 ROD WATSN4
Aircraft A320/M-SDE3FGHIRWY/LB1

Departure

Time 2026-04-21 23:19
Airport Ronald Reagan Washington National Airport (KDCA)

Arrival

Time N/A
Airport Chicago O'Hare International Airport (KORD)
Time Latitude Longitude Altitude Speed Heading
2026-04-21 23:06 38.85097 -77.04122 24 ft 0 kts 261°
2026-04-21 23:09 38.85099 -77.04105 24 ft 4 kts 261°
2026-04-21 23:10 38.85103 -77.04071 24 ft 4 kts 261°
2026-04-21 23:10 38.85108 -77.04037 24 ft 4 kts 261°
2026-04-21 23:10 38.85112 -77.04003 28 ft 4 kts 263°
2026-04-21 23:10 38.85109 -77.03976 28 ft 4 kts 330°
2026-04-21 23:11 38.85090 -77.03970 25 ft 4 kts 355°
2026-04-21 23:11 38.85081 -77.03969 24 ft 1 kts 355°
2026-04-21 23:13 38.85097 -77.03971 24 ft 4 kts 355°
2026-04-21 23:13 38.85142 -77.03976 24 ft 8 kts 356°
2026-04-21 23:13 38.85210 -77.03985 25 ft 11 kts 354°
2026-04-21 23:14 38.85295 -77.03993 24 ft 14 kts 356°
2026-04-21 23:14 38.85397 -77.04002 24 ft 16 kts 356°
2026-04-21 23:14 38.85511 -77.03974 24 ft 18 kts 14°
2026-04-21 23:14 38.85581 -77.03963 26 ft 19 kts 358°
2026-04-21 23:15 38.85693 -77.03971 27 ft 20 kts 356°
2026-04-21 23:16 38.85837 -77.03983 26 ft 22 kts 356°
2026-04-21 23:16 38.85935 -77.03985 24 ft 11 kts 11°
2026-04-21 23:16 38.86019 -77.03950 26 ft 14 kts 17°
2026-04-21 23:16 38.86083 -77.03877 23 ft 14 kts 120°
2026-04-21 23:17 38.86051 -77.03865 24 ft 0 kts 192°
2026-04-21 23:18 38.85996 -77.03860 24 ft 37 kts 177°
2026-04-21 23:18 38.85416 -77.03804 26 ft 125 kts 175°
2026-04-21 23:18 38.84356 -77.03730 293 ft 169 kts 178°
2026-04-21 23:19 38.83075 -77.03678 920 ft 201 kts 178°
2026-04-21 23:19 38.81614 -77.03600 1786 ft 214 kts 178°
2026-04-21 23:19 38.80164 -77.03751 2890 ft 204 kts 199°
2026-04-21 23:19 38.78948 -77.04567 3954 ft 196 kts 212°
2026-04-21 23:20 38.77784 -77.05513 4694 ft 205 kts 219°
2026-04-21 23:20 38.76599 -77.06702 5118 ft 227 kts 226°
2026-04-21 23:20 38.75806 -77.08491 5538 ft 243 kts 261°
2026-04-21 23:20 38.75572 -77.10671 6361 ft 250 kts 265°
2026-04-21 23:21 38.75310 -77.12908 7339 ft 252 kts 265°
2026-04-21 23:21 38.75182 -77.13924 7774 ft 253 kts 265°
2026-04-21 23:22 38.75000 -77.15169 8196 ft 257 kts 264°
2026-04-21 23:22 38.74683 -77.17427 9131 ft 259 kts 266°
2026-04-21 23:22 38.74384 -77.19715 10011 ft 263 kts 267°
2026-04-21 23:22 38.74124 -77.22121 10400 ft 281 kts 272°
2026-04-21 23:23 38.74243 -77.24638 10979 ft 285 kts 285°
2026-04-21 23:23 38.74801 -77.27073 11678 ft 286 kts 296°
2026-04-21 23:23 38.75763 -77.29312 12417 ft 288 kts 304°
2026-04-21 23:23 38.76829 -77.31512 13169 ft 293 kts 304°
2026-04-21 23:24 38.77905 -77.33747 13902 ft 297 kts 304°
2026-04-21 23:24 38.78997 -77.36026 14583 ft 302 kts 304°
2026-04-21 23:24 38.80098 -77.38329 15259 ft 305 kts 303°
2026-04-21 23:24 38.81213 -77.40659 15945 ft 308 kts 303°
2026-04-21 23:25 38.82337 -77.43008 16625 ft 311 kts 303°
2026-04-21 23:25 38.83474 -77.45381 17306 ft 314 kts 303°
2026-04-21 23:25 38.84620 -77.47776 17978 ft 317 kts 303°
2026-04-21 23:25 38.85780 -77.50202 18640 ft 320 kts 303°
2026-04-21 23:26 38.86947 -77.52648 19236 ft 323 kts 303°
2026-04-21 23:26 38.88124 -77.55115 19843 ft 326 kts 303°
2026-04-21 23:26 38.89312 -77.57607 20458 ft 329 kts 302°
2026-04-21 23:26 38.90509 -77.60120 21012 ft 332 kts 302°
2026-04-21 23:27 38.91723 -77.62670 21521 ft 337 kts 302°
2026-04-21 23:27 38.92946 -77.65256 22109 ft 340 kts 300°
2026-04-21 23:27 38.93889 -77.68052 22676 ft 345 kts 289°
2026-04-21 23:27 38.94362 -77.71097 23262 ft 351 kts 278°
2026-04-21 23:28 38.94477 -77.74254 23846 ft 355 kts 276°
2026-04-21 23:28 38.94583 -77.77430 24353 ft 358 kts 276°
2026-04-21 23:28 38.94695 -77.80636 24863 ft 360 kts 276°
2026-04-21 23:28 38.94810 -77.83856 25351 ft 362 kts 276°
2026-04-21 23:29 38.94929 -77.87127 25847 ft 364 kts 276°
2026-04-21 23:29 38.95047 -77.90389 26330 ft 366 kts 276°
2026-04-21 23:29 38.95160 -77.93657 26775 ft 368 kts 276°
2026-04-21 23:29 38.95270 -77.96948 27215 ft 370 kts 276°
2026-04-21 23:30 38.95342 -77.99134 27487 ft 372 kts 276°
2026-04-21 23:30 38.95454 -78.02468 27909 ft 374 kts 276°
2026-04-21 23:30 38.95570 -78.05826 28355 ft 377 kts 276°
2026-04-21 23:30 38.95684 -78.09195 28791 ft 379 kts 276°
2026-04-21 23:31 38.95792 -78.12579 29220 ft 381 kts 275°
2026-04-21 23:31 38.95898 -78.15995 29637 ft 383 kts 275°
2026-04-21 23:31 38.96005 -78.19425 30061 ft 385 kts 275°
2026-04-21 23:31 38.96121 -78.22871 30444 ft 387 kts 276°
2026-04-21 23:32 38.96299 -78.26340 30806 ft 389 kts 277°
2026-04-21 23:32 38.96531 -78.29854 31172 ft 391 kts 278°
2026-04-21 23:32 38.96782 -78.33339 31539 ft 393 kts 278°
2026-04-21 23:32 38.97035 -78.36838 31948 ft 394 kts 278°
2026-04-21 23:33 38.97280 -78.40343 32434 ft 393 kts 278°
2026-04-21 23:33 38.97513 -78.43830 32929 ft 391 kts 278°
2026-04-21 23:33 38.97739 -78.47306 33437 ft 390 kts 277°
2026-04-21 23:33 38.97958 -78.50773 33966 ft 388 kts 277°
2026-04-21 23:34 38.98172 -78.54228 34427 ft 387 kts 277°
2026-04-21 23:34 38.98382 -78.57668 34826 ft 386 kts 277°
2026-04-21 23:34 38.98593 -78.61106 35211 ft 386 kts 277°
2026-04-21 23:34 38.98805 -78.64540 35577 ft 385 kts 277°
2026-04-21 23:35 38.99014 -78.67962 35946 ft 385 kts 277°
2026-04-21 23:35 38.99225 -78.71397 36211 ft 386 kts 276°
2026-04-21 23:35 38.99436 -78.74837 36497 ft 387 kts 276°
2026-04-21 23:35 38.99647 -78.78288 36816 ft 387 kts 276°
2026-04-21 23:36 38.99857 -78.81729 37135 ft 387 kts 276°
2026-04-21 23:36 39.00067 -78.85176 37437 ft 386 kts 276°
2026-04-21 23:36 39.00276 -78.88619 37741 ft 386 kts 276°
2026-04-21 23:36 39.00483 -78.92061 37913 ft 387 kts 276°
2026-04-21 23:37 39.00888 -78.98920 37942 ft 384 kts 276°
2026-04-21 23:37 39.01291 -79.05797 37931 ft 383 kts 276°
2026-04-21 23:38 39.01688 -79.12653 37938 ft 385 kts 276°
2026-04-21 23:38 39.02083 -79.19528 37936 ft 386 kts 277°
2026-04-21 23:39 39.02524 -79.26401 37938 ft 386 kts 277°
2026-04-21 23:39 39.02991 -79.33277 37938 ft 386 kts 277°
2026-04-21 23:40 39.03449 -79.40167 37944 ft 386 kts 277°
2026-04-21 23:40 39.03894 -79.47049 37962 ft 386 kts 277°
2026-04-21 23:41 39.04322 -79.53915 37976 ft 384 kts 277°
2026-04-21 23:41 39.04750 -79.60750 37973 ft 383 kts 277°
2026-04-21 23:42 39.05177 -79.67611 37967 ft 382 kts 277°
2026-04-21 23:42 39.05598 -79.74417 37948 ft 381 kts 277°
2026-04-21 23:43 39.06011 -79.81217 37942 ft 381 kts 277°
2026-04-21 23:43 39.06418 -79.88012 37939 ft 381 kts 277°
2026-04-21 23:44 39.06821 -79.94804 37939 ft 380 kts 277°
2026-04-21 23:44 39.07233 -80.01602 37943 ft 381 kts 277°
2026-04-21 23:45 39.07837 -80.11796 37914 ft 381 kts 277°
2026-04-21 23:46 39.08223 -80.18594 37903 ft 381 kts 277°
2026-04-21 23:46 39.08607 -80.25386 37903 ft 380 kts 277°
2026-04-21 23:47 39.08996 -80.32166 37896 ft 380 kts 276°
2026-04-21 23:47 39.09371 -80.38993 37898 ft 380 kts 276°
2026-04-21 23:48 39.09728 -80.45774 37909 ft 380 kts 276°
2026-04-21 23:48 39.10081 -80.52557 37907 ft 380 kts 276°
2026-04-21 23:49 39.10442 -80.59331 37903 ft 379 kts 276°
2026-04-21 23:49 39.10796 -80.66097 37903 ft 379 kts 276°
2026-04-21 23:50 39.11140 -80.72862 37898 ft 378 kts 276°
2026-04-21 23:50 39.11483 -80.79614 37896 ft 378 kts 276°
2026-04-21 23:51 39.11822 -80.86373 37899 ft 378 kts 276°
2026-04-21 23:51 39.12157 -80.93119 37886 ft 377 kts 276°
2026-04-21 23:52 39.12488 -80.99863 37891 ft 377 kts 276°
2026-04-21 23:52 39.12846 -81.06601 37887 ft 376 kts 280°
2026-04-21 23:53 39.14433 -81.12946 37884 ft 373 kts 297°
2026-04-21 23:53 39.16879 -81.18848 37875 ft 374 kts 297°
2026-04-21 23:54 39.19331 -81.24804 37872 ft 374 kts 297°
2026-04-21 23:54 39.21754 -81.30729 37855 ft 374 kts 297°
2026-04-21 23:55 39.24178 -81.36672 37848 ft 375 kts 297°
2026-04-21 23:55 39.26605 -81.42624 37869 ft 375 kts 297°
2026-04-21 23:56 39.29029 -81.48587 37860 ft 376 kts 297°
2026-04-21 23:56 39.31459 -81.54561 37857 ft 376 kts 297°
2026-04-21 23:57 39.33893 -81.60545 37869 ft 376 kts 297°
2026-04-21 23:57 39.36321 -81.66540 37854 ft 377 kts 297°
2026-04-21 23:58 39.38749 -81.72552 37849 ft 377 kts 297°
2026-04-21 23:58 39.41177 -81.78575 37850 ft 378 kts 297°
2026-04-21 23:59 39.43620 -81.84644 37850 ft 378 kts 297°
2026-04-21 23:59 39.46050 -81.90674 37852 ft 378 kts 297°
2026-04-22 00:00 39.48476 -81.96726 37849 ft 379 kts 297°
2026-04-22 00:00 39.50488 -82.01754 37853 ft 379 kts 296°